Time,TemperatureF,DewpointF,PressureIn,WindDirection,WindDirectionDegrees,WindSpeedMPH,WindSpeedGustMPH,Humidity,HourlyPrecipIn,Conditions,Clouds,dailyrainin,SolarRadiationWatts/m^2,SoftwareType,DateUTC
2013-05-16 00:23:00,40.0,28.0,-100.00,NE,52,4.0,11.0,61,0.00,,,0.00,0.000000,,2013-05-16 08:23:00,
2013-05-16 00:34:00,40.0,28.0,-100.00,NE,52,4.0,11.0,61,0.00,,,0.00,0.000000,,2013-05-16 08:34:00,
2013-05-16 00:44:00,40.0,28.0,-100.00,NE,52,4.0,11.0,61,0.00,,,0.00,0.000000,,2013-05-16 08:44:00,
2013-05-16 00:54:00,39.0,27.0,-100.00,NE,51,4.0,16.0,63,0.00,,,0.00,0.000000,,2013-05-16 08:54:00,
2013-05-16 01:14:00,39.0,27.0,-100.00,NE,51,4.0,16.0,63,0.00,,,0.00,0.000000,,2013-05-16 09:14:00,
2013-05-16 01:24:00,39.0,27.0,-100.00,NE,51,4.0,16.0,63,0.00,,,0.00,0.000000,,2013-05-16 09:24:00,
2013-05-16 01:35:00,39.0,27.0,-100.00,NE,51,4.0,16.0,63,0.00,,,0.00,0.000000,,2013-05-16 09:35:00,
2013-05-16 01:45:00,39.0,27.0,-100.00,NE,51,4.0,16.0,63,0.00,,,0.00,0.000000,,2013-05-16 09:45:00,
2013-05-16 01:54:00,39.0,28.0,-100.00,ENE,57,5.0,11.0,64,0.00,,,0.00,0.000000,,2013-05-16 09:54:00,
2013-05-16 02:24:00,39.0,28.0,-100.00,ENE,57,5.0,11.0,64,0.00,,,0.00,0.000000,,2013-05-16 10:24:00,
2013-05-16 02:35:00,39.0,28.0,-100.00,ENE,57,5.0,11.0,64,0.00,,,0.00,0.000000,,2013-05-16 10:35:00,
2013-05-16 02:45:00,39.0,28.0,-100.00,ENE,57,5.0,11.0,64,0.00,,,0.00,0.000000,,2013-05-16 10:45:00,
2013-05-16 02:54:00,39.0,30.0,-100.00,NE,56,4.0,11.0,69,0.00,,,0.00,0.000000,,2013-05-16 10:54:00,
2013-05-16 03:14:00,39.0,30.0,-100.00,NE,56,4.0,11.0,69,0.00,,,0.00,0.000000,,2013-05-16 11:14:00,
2013-05-16 03:25:00,39.0,30.0,-100.00,NE,56,4.0,11.0,69,0.00,,,0.00,0.000000,,2013-05-16 11:25:00,
2013-05-16 03:35:00,39.0,30.0,-100.00,NE,56,4.0,11.0,69,0.00,,,0.00,0.000000,,2013-05-16 11:35:00,
2013-05-16 03:46:00,39.0,30.0,-100.00,NE,56,4.0,11.0,69,0.00,,,0.00,0.000000,,2013-05-16 11:46:00,
2013-05-16 04:13:00,38.0,30.0,-100.00,NE,34,4.0,11.0,73,0.00,,,0.00,0.000000,,2013-05-16 12:13:00,
2013-05-16 04:23:00,38.0,30.0,-100.00,NE,34,4.0,11.0,73,0.00,,,0.00,0.000000,,2013-05-16 12:23:00,
2013-05-16 04:34:00,38.0,30.0,-100.00,NE,34,4.0,11.0,73,0.00,,,0.00,0.000000,,2013-05-16 12:34:00,
2013-05-16 04:45:00,38.0,30.0,-100.00,NE,34,4.0,11.0,73,0.00,,,0.00,0.000000,,2013-05-16 12:45:00,
2013-05-16 04:53:00,38.0,30.0,-100.00,NE,34,4.0,11.0,73,0.00,,,0.00,0.000000,,2013-05-16 12:53:00,
2013-05-16 04:54:00,38.0,31.0,-100.00,NNE,30,4.0,11.0,75,0.00,,,0.00,0.000000,,2013-05-16 12:54:00,
2013-05-16 05:12:00,38.0,31.0,-100.00,NNE,30,4.0,11.0,75,0.00,,,0.00,0.000000,,2013-05-16 13:12:00,
2013-05-16 05:26:00,38.0,31.0,-100.00,NNE,30,4.0,11.0,75,0.00,,,0.00,0.000000,,2013-05-16 13:26:00,
2013-05-16 05:35:00,38.0,31.0,-100.00,NNE,30,4.0,11.0,75,0.00,,,0.00,0.000000,,2013-05-16 13:35:00,
2013-05-16 05:43:00,38.0,31.0,-100.00,NNE,30,4.0,11.0,75,0.00,,,0.00,0.000000,,2013-05-16 13:43:00,
2013-05-16 05:54:00,38.0,31.0,-100.00,NNE,32,4.0,10.0,75,0.00,,,0.00,1.000000,,2013-05-16 13:54:00,
2013-05-16 06:15:00,38.0,31.0,-100.00,NNE,32,4.0,10.0,75,0.00,,,0.00,1.000000,,2013-05-16 14:15:00,
2013-05-16 06:23:00,38.0,31.0,-100.00,NNE,32,4.0,10.0,75,0.00,,,0.00,1.000000,,2013-05-16 14:23:00,
2013-05-16 06:37:00,38.0,31.0,-100.00,NNE,32,4.0,10.0,75,0.00,,,0.00,1.000000,,2013-05-16 14:37:00,
2013-05-16 06:47:00,38.0,31.0,-100.00,NNE,32,4.0,10.0,75,0.00,,,0.00,1.000000,,2013-05-16 14:47:00,
2013-05-16 06:54:00,38.0,31.0,-100.00,NNE,23,3.0,9.0,75,0.00,,,0.00,10.000000,,2013-05-16 14:54:00,
2013-05-16 07:17:00,38.0,31.0,-100.00,NNE,23,3.0,9.0,75,0.00,,,0.00,10.000000,,2013-05-16 15:17:00,
2013-05-16 07:28:00,38.0,31.0,-100.00,NNE,23,3.0,9.0,75,0.00,,,0.00,10.000000,,2013-05-16 15:28:00,
2013-05-16 07:40:00,38.0,31.0,-100.00,NNE,23,3.0,9.0,75,0.00,,,0.00,10.000000,,2013-05-16 15:40:00,
2013-05-16 07:50:00,38.0,31.0,-100.00,NNE,23,3.0,9.0,75,0.00,,,0.00,10.000000,,2013-05-16 15:50:00,
2013-05-16 07:54:00,38.0,30.0,-100.00,NNE,13,3.0,10.0,73,0.00,,,0.00,18.000000,,2013-05-16 15:54:00,
2013-05-16 08:30:00,38.0,30.0,-100.00,NNE,13,3.0,10.0,73,0.00,,,0.00,18.000000,,2013-05-16 16:30:00,
2013-05-16 08:40:00,38.0,-99.9,-100.00,NNE,13,3.0,10.0,73,0.00,,,0.00,18.000000,,2013-05-16 16:40:00,
2013-05-16 08:50:00,38.0,30.0,-100.00,NNE,13,3.0,10.0,73,0.00,,,0.00,18.000000,,2013-05-16 16:50:00,
2013-05-16 08:54:00,38.0,-99.9,-100.00,NNE,28,3.0,12.0,78,0.00,,,0.00,46.000000,,2013-05-16 16:54:00,
2013-05-16 09:30:00,38.0,32.0,-100.00,NNE,28,3.0,12.0,78,0.00,,,0.00,46.000000,,2013-05-16 17:30:00,
2013-05-16 09:40:00,38.0,32.0,-100.00,NNE,28,3.0,12.0,78,0.00,,,0.00,46.000000,,2013-05-16 17:40:00,
2013-05-16 09:50:00,38.0,-99.9,-100.00,NNE,28,3.0,12.0,78,0.00,,,0.00,46.000000,,2013-05-16 17:50:00,
2013-05-16 09:54:00,-999.0,-99.9,-100.00,NNE,12,3.0,8.0,75,0.00,,,0.00,70.000000,,2013-05-16 17:54:00,
2013-05-16 10:30:00,-999.0,-99.9,-100.00,NNE,12,3.0,8.0,75,0.00,,,0.00,70.000000,,2013-05-16 18:30:00,
2013-05-16 10:40:00,-999.0,-99.9,-100.00,NNE,12,3.0,8.0,75,0.00,,,0.00,70.000000,,2013-05-16 18:40:00,
2013-05-16 10:50:00,-999.0,-99.9,-100.00,NNE,12,3.0,8.0,75,0.00,,,0.00,70.000000,,2013-05-16 18:50:00,
2013-05-16 10:54:00,41.0,-99.9,-100.00,NNE,32,2.0,11.0,73,0.00,,,0.00,81.000000,,2013-05-16 18:54:00,
2013-05-16 11:30:00,41.0,33.0,-100.00,NNE,32,2.0,11.0,73,0.00,,,0.00,81.000000,,2013-05-16 19:30:00,
2013-05-16 11:40:00,41.0,-99.9,-100.00,NNE,32,2.0,11.0,73,0.00,,,0.00,81.000000,,2013-05-16 19:40:00,
2013-05-16 11:50:00,-999.0,-99.9,-100.00,NNE,32,2.0,11.0,73,0.00,,,0.00,81.000000,,2013-05-16 19:50:00,
2013-05-16 11:54:00,42.0,32.0,-100.00,NE,48,3.0,14.0,68,0.00,,,0.00,81.000000,,2013-05-16 19:54:00,
2013-05-16 12:20:00,42.0,-99.9,-100.00,NE,48,3.0,14.0,68,0.00,,,0.00,81.000000,,2013-05-16 20:20:00,
2013-05-16 12:30:00,42.0,32.0,-100.00,NE,48,3.0,14.0,68,0.00,,,0.00,81.000000,,2013-05-16 20:30:00,
2013-05-16 12:40:00,-999.0,-99.9,-100.00,NE,48,3.0,14.0,68,0.00,,,0.00,81.000000,,2013-05-16 20:40:00,
2013-05-16 12:50:00,42.0,32.0,-100.00,NE,48,3.0,14.0,68,0.00,,,0.00,81.000000,,2013-05-16 20:50:00,
2013-05-16 12:54:00,-999.0,-99.9,-100.00,NE,51,4.0,14.0,66,0.00,,,0.00,77.000000,,2013-05-16 20:54:00,
2013-05-16 13:29:00,42.0,31.0,-100.00,NE,51,4.0,14.0,66,0.00,,,0.00,77.000000,,2013-05-16 21:29:00,
2013-05-16 13:38:00,42.0,31.0,-100.00,NE,51,4.0,14.0,66,0.00,,,0.00,77.000000,,2013-05-16 21:38:00,
2013-05-16 13:50:00,42.0,-99.9,-100.00,NE,51,4.0,14.0,66,0.00,,,0.00,77.000000,,2013-05-16 21:50:00,
2013-05-16 13:54:00,44.0,32.0,-100.00,ENE,61,4.0,13.0,62,0.00,,,0.00,126.000000,,2013-05-16 21:54:00,
2013-05-16 14:20:00,44.0,32.0,-100.00,ENE,61,4.0,13.0,62,0.00,,,0.00,126.000000,,2013-05-16 22:20:00,
2013-05-16 14:30:00,44.0,32.0,-100.00,ENE,61,4.0,13.0,62,0.00,,,0.00,126.000000,,2013-05-16 22:30:00,
2013-05-16 14:40:00,44.0,32.0,-100.00,ENE,61,4.0,13.0,62,0.00,,,0.00,126.000000,,2013-05-16 22:40:00,
2013-05-16 14:50:00,44.0,32.0,-100.00,ENE,61,4.0,13.0,62,0.00,,,0.00,126.000000,,2013-05-16 22:50:00,
2013-05-16 14:54:00,44.0,32.0,-100.00,ENE,58,5.0,12.0,62,0.00,,,0.00,141.000000,,2013-05-16 22:54:00,
2013-05-16 15:16:00,44.0,32.0,-100.00,ENE,58,5.0,12.0,62,0.00,,,0.00,141.000000,,2013-05-16 23:16:00,
2013-05-16 15:24:00,44.0,32.0,-100.00,ENE,58,5.0,12.0,62,0.00,,,0.00,141.000000,,2013-05-16 23:24:00,
2013-05-16 15:34:00,44.0,32.0,-100.00,ENE,58,5.0,12.0,62,0.00,,,0.00,141.000000,,2013-05-16 23:34:00,
2013-05-16 15:45:00,44.0,32.0,-100.00,ENE,58,5.0,12.0,62,0.00,,,0.00,141.000000,,2013-05-16 23:45:00,
2013-05-16 16:13:00,44.0,31.0,-100.00,ENE,62,6.0,14.0,60,0.00,,,0.00,145.000000,,2013-05-17 00:13:00,
2013-05-16 16:22:00,44.0,31.0,-100.00,ENE,62,6.0,14.0,60,0.00,,,0.00,145.000000,,2013-05-17 00:22:00,
2013-05-16 16:33:00,44.0,31.0,-100.00,ENE,62,6.0,14.0,60,0.00,,,0.00,145.000000,,2013-05-17 00:33:00,
2013-05-16 16:43:00,44.0,31.0,-100.00,ENE,62,6.0,14.0,60,0.00,,,0.00,145.000000,,2013-05-17 00:43:00,
2013-05-16 16:52:00,44.0,31.0,-100.00,ENE,62,6.0,14.0,60,0.00,,,0.00,145.000000,,2013-05-17 00:52:00,
2013-05-16 17:12:00,44.0,30.0,-100.00,NE,55,5.0,14.0,58,0.00,,,0.00,99.000000,,2013-05-17 01:12:00,
2013-05-16 17:23:00,44.0,30.0,-100.00,NE,55,5.0,14.0,58,0.00,,,0.00,99.000000,,2013-05-17 01:23:00,
2013-05-16 17:32:00,44.0,30.0,-100.00,NE,55,5.0,14.0,58,0.00,,,0.00,99.000000,,2013-05-17 01:32:00,
2013-05-16 17:43:00,44.0,30.0,-100.00,NE,55,5.0,14.0,58,0.00,,,0.00,99.000000,,2013-05-17 01:43:00,
2013-05-16 17:52:00,44.0,30.0,-100.00,NE,55,5.0,14.0,58,0.00,,,0.00,99.000000,,2013-05-17 01:52:00,
2013-05-16 18:11:00,44.0,30.0,-100.00,NE,51,4.0,13.0,58,0.00,,,0.00,71.000000,,2013-05-17 02:11:00,
2013-05-16 18:21:00,44.0,30.0,-100.00,NE,51,4.0,13.0,58,0.00,,,0.00,71.000000,,2013-05-17 02:21:00,
2013-05-16 18:32:00,44.0,30.0,-100.00,NE,51,4.0,13.0,58,0.00,,,0.00,71.000000,,2013-05-17 02:32:00,
2013-05-16 18:41:00,44.0,30.0,-100.00,NE,51,4.0,13.0,58,0.00,,,0.00,71.000000,,2013-05-17 02:41:00,
2013-05-16 18:52:00,44.0,30.0,-100.00,NE,51,4.0,13.0,58,0.00,,,0.00,71.000000,,2013-05-17 02:52:00,
2013-05-16 19:22:00,44.0,31.0,-100.00,NE,56,4.0,11.0,59,0.00,,,0.00,69.000000,,2013-05-17 03:22:00,
2013-05-16 19:34:00,44.0,31.0,-100.00,NE,56,4.0,11.0,59,0.00,,,0.00,69.000000,,2013-05-17 03:34:00,
2013-05-16 19:43:00,44.0,31.0,-100.00,NE,56,4.0,11.0,59,0.00,,,0.00,69.000000,,2013-05-17 03:43:00,
2013-05-16 19:53:00,44.0,31.0,-100.00,NE,56,4.0,11.0,59,0.00,,,0.00,69.000000,,2013-05-17 03:53:00,
2013-05-16 20:13:00,43.0,30.0,-100.00,NE,56,3.0,10.0,61,0.00,,,0.00,50.000000,,2013-05-17 04:13:00,
2013-05-16 20:23:00,43.0,30.0,-100.00,NE,56,3.0,10.0,61,0.00,,,0.00,50.000000,,2013-05-17 04:23:00,
2013-05-16 20:33:00,43.0,30.0,-100.00,NE,56,3.0,10.0,61,0.00,,,0.00,50.000000,,2013-05-17 04:33:00,
2013-05-16 20:43:00,43.0,30.0,-100.00,NE,56,3.0,10.0,61,0.00,,,0.00,50.000000,,2013-05-17 04:43:00,
2013-05-16 20:53:00,43.0,30.0,-100.00,NE,56,3.0,10.0,61,0.00,,,0.00,50.000000,,2013-05-17 04:53:00,
2013-05-16 21:14:00,43.0,32.0,-100.00,ENE,67,4.0,15.0,64,0.00,,,0.00,45.000000,,2013-05-17 05:14:00,
2013-05-16 21:22:00,43.0,32.0,-100.00,ENE,67,4.0,15.0,64,0.00,,,0.00,45.000000,,2013-05-17 05:22:00,
2013-05-16 21:32:00,43.0,32.0,-100.00,ENE,67,4.0,15.0,64,0.00,,,0.00,45.000000,,2013-05-17 05:32:00,
2013-05-16 21:42:00,43.0,32.0,-100.00,ENE,67,4.0,15.0,64,0.00,,,0.00,45.000000,,2013-05-17 05:42:00,
2013-05-16 21:51:00,43.0,32.0,-100.00,ENE,67,4.0,15.0,64,0.00,,,0.00,45.000000,,2013-05-17 05:51:00,
2013-05-16 22:21:00,41.0,32.0,-100.00,ENE,60,3.0,14.0,70,0.00,,,0.00,18.000000,,2013-05-17 06:21:00,
2013-05-16 22:32:00,41.0,32.0,-100.00,ENE,60,3.0,14.0,70,0.00,,,0.00,18.000000,,2013-05-17 06:32:00,
2013-05-16 22:42:00,41.0,32.0,-100.00,ENE,60,3.0,14.0,70,0.00,,,0.00,18.000000,,2013-05-17 06:42:00,
2013-05-16 22:51:00,41.0,32.0,-100.00,ENE,60,3.0,14.0,70,0.00,,,0.00,18.000000,,2013-05-17 06:51:00,
2013-05-16 23:11:00,40.0,32.0,-100.00,NNE,23,2.0,9.0,74,0.00,,,0.00,3.000000,,2013-05-17 07:11:00,
2013-05-16 23:21:00,40.0,32.0,-100.00,NNE,23,2.0,9.0,74,0.00,,,0.00,3.000000,,2013-05-17 07:21:00,
2013-05-16 23:32:00,40.0,32.0,-100.00,NNE,23,2.0,9.0,74,0.00,,,0.00,3.000000,,2013-05-17 07:32:00,
2013-05-16 23:43:00,40.0,32.0,-100.00,NNE,23,2.0,9.0,74,0.00,,,0.00,3.000000,,2013-05-17 07:43:00,
2013-05-16 23:53:00,40.0,32.0,-100.00,NNE,23,2.0,9.0,74,0.00,,,0.00,3.000000,,2013-05-17 07:53:00,